Location: G�rlitz
(51.1670°N, 15.0000°E)
Time: 16:13:23
(UTC+02:00)

RS-44 - Visible Passes

Search period start: 19 April 2026 00:00
Search period end: 29 April 2026 00:00
Orbit: 1175 x 1510 km, 82.5° (Epoch: 19 April)

Date Brightness Start Highest point End Pass type
(mag) Time Alt. Az. Time Alt. Az. Time Alt. Az.
19 Apr ? 00:08:48 10° NNW 00:17:40 69° W 00:20:38 45° SSW visible
19 Apr ? 02:04:02 10° NNW 02:09:25 18° WNW 02:13:13 13° W visible
19 Apr ? 20:46:37 10° N 20:51:36 16° NE 20:56:33 10° ENE visible
19 Apr ? 22:39:03 10° N 22:47:44 50° ENE 22:51:48 31° SE visible
20 Apr ? 00:32:47 10° NNW 00:41:14 49° W 00:44:24 35° SW visible
20 Apr ? 02:29:50 10° NW 02:32:21 11° WNW 02:34:51 10° W visible
20 Apr ? 21:09:55 10° N 21:16:23 21° NE 21:22:43 10° E visible
20 Apr ? 23:02:49 10° N 23:11:46 70° ENE 23:15:35 38° SSE visible
21 Apr ? 00:56:56 10° NNW 01:04:37 34° W 01:08:11 25° WSW visible
21 Apr ? 21:33:26 10° N 21:40:58 29° ENE 21:46:47 15° ESE visible
21 Apr ? 23:26:39 10° NNW 23:35:39 86° W 23:39:23 40° S visible
22 Apr ? 01:21:18 10° NNW 01:27:51 24° WNW 01:31:59 17° WSW visible
22 Apr ? 21:57:04 10° N 22:05:20 40° ENE 22:10:35 21° ESE visible
22 Apr ? 23:50:35 10° NNW 23:59:20 63° W 00:03:12 35° SSW visible
23 Apr ? 01:46:08 10° NW 01:50:54 16° WNW 01:55:35 10° WSW visible
23 Apr ? 22:20:46 10° N 22:29:31 55° ENE 22:34:25 27° SE visible
24 Apr ? 00:14:37 10° NNW 00:22:51 44° W 00:27:01 27° SW visible
24 Apr ? 20:51:34 10° N 20:58:18 23° NE 21:04:51 10° ESE visible
24 Apr ? 22:44:34 10° N 22:53:31 76° ENE 22:58:14 31° SSE visible
25 Apr ? 00:38:48 10° NNW 00:46:11 31° W 00:50:50 19° SW visible
25 Apr ? 21:15:07 10° N 21:22:50 31° ENE 21:29:28 13° ESE visible
25 Apr ? 23:08:25 10° NNW 23:17:20 80° W 23:22:04 31° S visible
26 Apr ? 01:03:16 10° NNW 01:09:21 21° WNW 01:14:40 12° WSW visible
26 Apr ? 21:38:46 10° N 21:47:10 43° ENE 21:53:19 17° SE visible
26 Apr ? 23:32:23 10° NNW 23:40:59 57° W 23:45:55 26° SSW visible
27 Apr ? 01:28:23 10° NW 01:32:21 14° WNW 01:36:16 10° W visible
27 Apr ? 22:02:31 10° N 22:11:18 59° ENE 22:17:10 21° SE visible
27 Apr ? 23:56:27 10° NNW 00:04:26 40° W 00:09:47 20° SW visible
28 Apr ? 22:26:19 10° N 22:35:15 82° E 22:41:02 23° SSE visible
